TimeEST,TemperatureF,Dew PointF,Humidity,Sea Level PressureIn,VisibilityMPH,Wind Direction,Wind SpeedMPH,Gust SpeedMPH,PrecipitationIn,Events,Conditions,WindDirDegrees,DateUTC
12:15 AM,44.6,44.6,100,30.06,3.0,SSW,3.5,-,N/A,,Overcast,200,2012-12-08 05:15:00
12:35 AM,44.6,44.6,100,30.05,2.0,Calm,Calm,-,N/A,Rain,Light Rain,0,2012-12-08 05:35:00
12:55 AM,44.6,44.6,100,30.05,2.5,Calm,Calm,-,N/A,,Overcast,0,2012-12-08 05:55:00
1:15 AM,44.6,44.6,100,30.05,4.0,South,3.5,-,N/A,,Overcast,180,2012-12-08 06:15:00
1:35 AM,44.6,44.6,100,30.05,3.0,Calm,Calm,-,N/A,,Overcast,0,2012-12-08 06:35:00
1:55 AM,44.6,44.6,100,30.05,2.5,Calm,Calm,-,N/A,,Overcast,0,2012-12-08 06:55:00
2:15 AM,44.6,44.6,100,30.04,2.0,SSE,3.5,-,N/A,,Overcast,150,2012-12-08 07:15:00
2:35 AM,44.6,44.6,100,30.04,1.5,SE,3.5,-,N/A,,Overcast,140,2012-12-08 07:35:00
2:55 AM,44.6,44.6,100,30.03,1.0,SE,3.5,-,N/A,Rain,Light Rain,140,2012-12-08 07:55:00
3:15 AM,44.6,44.6,100,30.03,1.0,SE,3.5,-,N/A,Rain,Light Rain,140,2012-12-08 08:15:00
3:35 AM,44.6,44.6,100,30.02,1.2,SE,3.5,-,N/A,Rain,Light Rain,130,2012-12-08 08:35:00
3:55 AM,46.4,44.6,93,30.02,2.5,Calm,Calm,-,0.01,Rain,Light Rain,0,2012-12-08 08:55:00
4:15 AM,46.4,44.6,93,30.02,2.5,Calm,Calm,-,N/A,Rain,Light Rain,0,2012-12-08 09:15:00
4:35 AM,46.4,44.6,93,30.01,2.0,Calm,Calm,-,0.01,Rain,Light Rain,0,2012-12-08 09:35:00
4:55 AM,46.4,44.6,93,30.01,2.0,Calm,Calm,-,0.02,Rain,Light Rain,0,2012-12-08 09:55:00
5:15 AM,46.4,44.6,93,30.01,1.5,Calm,Calm,-,N/A,Rain,Light Rain,0,2012-12-08 10:15:00
5:35 AM,46.4,44.6,93,30.01,1.8,East,3.5,-,N/A,Rain,Light Rain,90,2012-12-08 10:35:00
5:55 AM,46.4,44.6,93,30.00,2.5,ESE,4.6,-,0.03,Rain,Light Rain,110,2012-12-08 10:55:00
6:15 AM,46.4,46.4,100,30.00,4.0,ESE,6.9,-,0.01,Rain,Light Rain,120,2012-12-08 11:15:00
6:35 AM,46.4,46.4,100,30.00,3.0,SE,6.9,-,0.02,Rain,Light Rain,130,2012-12-08 11:35:00
6:55 AM,46.4,46.4,100,29.99,3.0,SE,9.2,-,0.06,Rain,Light Rain,140,2012-12-08 11:55:00
7:15 AM,46.4,46.4,100,29.97,4.0,SE,11.5,-,0.01,Rain,Light Rain,140,2012-12-08 12:15:00
7:35 AM,48.2,48.2,100,29.95,3.0,SE,13.8,-,0.02,Rain,Light Rain,130,2012-12-08 12:35:00
7:55 AM,48.2,48.2,100,29.94,6.0,SE,15.0,21.9,0.02,,Clear,130,2012-12-08 12:55:00
8:15 AM,50.0,48.2,94,29.93,7.0,SE,16.1,21.9,N/A,,Clear,130,2012-12-08 13:15:00
8:35 AM,50.0,48.2,94,29.94,5.0,SE,13.8,-,N/A,,Clear,130,2012-12-08 13:35:00
8:55 AM,50.0,50.0,100,29.93,1.5,ESE,9.2,-,N/A,,Clear,120,2012-12-08 13:55:00
9:15 AM,50.0,50.0,100,29.92,2.0,SE,9.2,-,N/A,,Clear,130,2012-12-08 14:15:00
9:35 AM,50.0,50.0,100,29.91,1.2,SE,9.2,-,N/A,,Clear,140,2012-12-08 14:35:00
9:55 AM,50.0,50.0,100,29.90,0.5,SE,12.7,18.4,N/A,Fog,Fog,130,2012-12-08 14:55:00
10:15 AM,51.8,50.0,94,29.89,0.5,SSE,13.8,-,N/A,Fog,Fog,160,2012-12-08 15:15:00
10:35 AM,51.8,51.8,100,29.88,0.2,SSE,12.7,-,N/A,Fog,Fog,160,2012-12-08 15:35:00
10:55 AM,53.6,53.6,100,29.87,0.5,South,13.8,19.6,N/A,Fog,Fog,180,2012-12-08 15:55:00
11:15 AM,55.4,55.4,100,29.86,6.0,SSW,9.2,-,N/A,,Mist,200,2012-12-08 16:15:00
11:35 AM,55.4,55.4,100,29.86,10.0,SSW,9.2,-,N/A,,Unknown,200,2012-12-08 16:35:00
11:55 AM,55.4,55.4,100,29.86,5.0,West,8.1,-,N/A,,Mist,270,2012-12-08 16:55:00
12:15 PM,53.6,53.6,100,29.85,1.0,West,8.1,-,N/A,Rain,Light Rain,280,2012-12-08 17:15:00
12:35 PM,55.4,55.4,100,29.84,1.8,WSW,9.2,-,N/A,,Mist,250,2012-12-08 17:35:00
12:55 PM,55.4,53.6,94,29.83,9.0,West,8.1,-,N/A,,Unknown,280,2012-12-08 17:55:00
1:15 PM,53.6,53.6,100,29.83,3.0,West,6.9,-,N/A,,Mist,280,2012-12-08 18:15:00
1:35 PM,53.6,53.6,100,29.84,1.8,WNW,5.8,-,N/A,,Mist,300,2012-12-08 18:35:00
1:55 PM,53.6,53.6,100,29.84,3.0,West,6.9,-,N/A,,Mist,280,2012-12-08 18:55:00
2:15 PM,53.6,53.6,100,29.84,3.0,NW,5.8,-,N/A,,Clear,310,2012-12-08 19:15:00
2:35 PM,53.6,53.6,100,29.85,2.0,NNW,5.8,-,N/A,,Mist,330,2012-12-08 19:35:00
2:55 PM,50.0,50.0,100,29.85,1.8,North,5.8,-,N/A,,Clear,360,2012-12-08 19:55:00
3:15 PM,48.2,48.2,100,29.86,3.0,NNE,5.8,-,N/A,,Clear,20,2012-12-08 20:15:00
3:35 PM,48.2,48.2,100,29.87,3.0,NNE,3.5,-,N/A,,Clear,30,2012-12-08 20:35:00
3:55 PM,48.2,46.4,93,29.87,5.0,NNE,5.8,-,N/A,,Clear,30,2012-12-08 20:55:00
4:15 PM,46.4,46.4,100,29.88,7.0,NNE,3.5,-,N/A,,Clear,30,2012-12-08 21:15:00
4:35 PM,46.4,46.4,100,29.88,2.5,NE,4.6,-,N/A,,Clear,40,2012-12-08 21:35:00
4:55 PM,46.4,44.6,93,29.89,2.5,NNE,4.6,-,N/A,,Clear,30,2012-12-08 21:55:00
5:15 PM,46.4,44.6,93,29.89,2.0,NNE,3.5,-,N/A,,Clear,30,2012-12-08 22:15:00
5:35 PM,46.4,44.6,93,29.90,2.0,North,3.5,-,N/A,,Clear,10,2012-12-08 22:35:00
5:55 PM,46.4,44.6,93,29.91,1.5,Calm,Calm,-,N/A,,Clear,0,2012-12-08 22:55:00
6:15 PM,46.4,44.6,93,29.91,2.0,Calm,Calm,-,N/A,,Clear,0,2012-12-08 23:15:00
6:35 PM,46.4,44.6,93,29.91,3.0,Calm,Calm,-,N/A,,Clear,0,2012-12-08 23:35:00
6:55 PM,44.6,44.6,100,29.92,2.0,Calm,Calm,-,N/A,,Clear,0,2012-12-08 23:55:00
7:15 PM,44.6,44.6,100,29.92,2.0,Calm,Calm,-,N/A,,Clear,0,2012-12-09 00:15:00
7:35 PM,46.4,44.6,93,29.92,2.5,South,3.5,-,N/A,,Clear,180,2012-12-09 00:35:00
7:55 PM,46.4,46.4,100,29.92,3.0,SW,4.6,-,N/A,,Clear,220,2012-12-09 00:55:00
8:15 PM,46.4,46.4,100,29.94,3.0,WSW,3.5,-,N/A,,Clear,250,2012-12-09 01:15:00
8:35 PM,48.2,48.2,100,29.94,8.0,West,8.1,-,N/A,,Clear,260,2012-12-09 01:35:00
8:55 PM,48.2,48.2,100,29.94,10.0,West,6.9,-,N/A,,Clear,260,2012-12-09 01:55:00
9:15 PM,48.2,48.2,100,29.94,10.0,West,9.2,-,N/A,,Clear,260,2012-12-09 02:15:00
9:35 PM,48.2,46.4,93,29.94,10.0,West,9.2,-,N/A,,Clear,270,2012-12-09 02:35:00
9:55 PM,48.2,46.4,93,29.94,7.0,WSW,4.6,-,N/A,,Clear,240,2012-12-09 02:55:00
10:15 PM,48.2,46.4,93,29.95,5.0,WSW,6.9,-,N/A,,Clear,250,2012-12-09 03:15:00
10:35 PM,46.4,46.4,100,29.96,7.0,West,8.1,-,N/A,,Clear,260,2012-12-09 03:35:00
10:55 PM,46.4,44.6,93,29.96,5.0,WSW,6.9,-,N/A,,Clear,240,2012-12-09 03:55:00
11:15 PM,46.4,44.6,93,29.97,3.0,WSW,5.8,-,N/A,,Clear,240,2012-12-09 04:15:00
11:35 PM,44.6,44.6,100,29.97,5.0,WSW,5.8,-,N/A,,Clear,250,2012-12-09 04:35:00
11:55 PM,44.6,44.6,100,29.98,5.0,WSW,6.9,-,N/A,,Clear,240,2012-12-09 04:55:00